Weather History for CYBW - October, 2011

Change the Weather History Date:

Sunday, October 30, 2011

  Actual Average Record
Temperature  
Mean Temperature 43 °F -  
Max Temperature 59 °F 34 °F 59 °F (2011)
Min Temperature 27 °F 14 °F -5 °F (2002)
Degree Days  
Heating Degree Days 22    
Moisture  
Dew Point 25 °F    
Average Humidity 42    
Maximum Humidity 59    
Minimum Humidity 23    
Precipitation  
Precipitation 0.00 in - - ()
Sea Level Pressure  
Sea Level Pressure 29.81 in    
Wind  
Wind Speed 11 mph ()    
Max Wind Speed 28 mph    
Max Gust Speed 36 mph    
Visibility 15.5 miles    
Events      
Averages and records for this station are not official NWS values.
T = Trace of Precipitation, MM = Missing Value Source: Averaged Metar Reports

Daily Weather History Graph

Daily Weather History Graph

Search for Another Location

Airport or City:

Trip Planner

Search our weather history database for the weather conditions in past years. The results will help you decide how hot, cold, wet, or windy it might be!

Date:

Astronomy

Oct. 30, 2011 Rise Set
Actual Time 8:26 AM MDT 6:15 PM MDT
Civil Twilight 7:51 AM MDT 6:49 PM MDT
Nautical Twilight 7:12 AM MDT 7:28 PM MDT
Astronomical Twilight 6:34 AM MDT 8:07 PM MDT
Moon 1:09 PM MDT (10/30) 9:29 PM MDT (10/30)
Length of Visible Light 10h 58m
Length of Day
9h 49m
Waxing Crescent, 20% of the Moon is Illuminated
Oct 30
Waxing Crescent
Nov 2
First Quarter
Nov 10
Full
Nov 18
Last Quarter
Nov 24
New

Hourly Weather History & Observations

Time (MDT) Temp. Windchill Dew Point Humidity Pressure Visibility Wind Dir Wind Speed Gust Speed Precip Events Conditions
5:00 AM 35.6 °F 30.7 °F 15.8 °F 44% 30.00 in 15.0 mi SW 5.8 mph - N/A   Mostly Cloudy
6:00 AM 33 °F - 17 °F 39% 29.98 in 15 mi South 9.2 mph - -   Mostly Cloudy
6:00 AM 33.8 °F 27.7 °F 17.6 °F 52% 29.98 in 15.0 mi South 6.9 mph - N/A   Mostly Cloudy
7:00 AM 30.2 °F 23.4 °F 15.8 °F 55% 29.95 in 15.0 mi SSW 6.9 mph - N/A   Scattered Clouds
8:00 AM 28.4 °F 18.5 °F 15.8 °F 59% 29.89 in 15.0 mi South 11.5 mph - N/A   Mostly Cloudy
10:00 AM 39.2 °F 37.0 °F 21.2 °F 49% 29.85 in 15.0 mi SSW 3.5 mph - N/A   Mostly Cloudy
11:00 AM 46.4 °F 43.5 °F 24.8 °F 43% 29.84 in 15.0 mi ESE 5.8 mph - N/A   Mostly Cloudy
12:00 PM 57 °F - 30 °F 23% 29.77 in 28 mi SW 4.6 mph - -   Scattered Clouds
12:00 PM 57.2 °F - 30.2 °F 36% 29.77 in 30.0 mi WSW 4.6 mph - N/A   Mostly Cloudy
1:00 PM 57.2 °F - 30.2 °F 36% 29.76 in 30.0 mi West 19.6 mph - N/A   Mostly Cloudy
2:00 PM 59.0 °F - 30.2 °F 34% 29.75 in 30.0 mi West 24.2 mph 31.1 mph N/A   Scattered Clouds
3:00 PM 57.2 °F - 30.2 °F 36% 29.74 in 30.0 mi West 27.6 mph 35.7 mph N/A   Scattered Clouds
4:00 PM 55.4 °F - 30.2 °F 38% 29.72 in 30.0 mi West 26.5 mph 35.7 mph N/A   Scattered Clouds
5:00 PM 51.8 °F - 28.4 °F 41% 29.72 in 30.0 mi WNW 23.0 mph 32.2 mph N/A   Scattered Clouds
6:00 PM 50 °F - 29 °F 31% 29.76 in 28 mi WNW 19.6 mph - -   Scattered Clouds
6:00 PM 50.0 °F - 28.4 °F 43% 29.76 in 30.0 mi WNW 21.9 mph 29.9 mph N/A   Mostly Cloudy
7:00 PM 46.4 °F 39.2 °F 28.4 °F 50% 29.76 in 20.0 mi WNW 18.4 mph - N/A   Mostly Cloudy
8:00 PM 44.6 °F 37.8 °F 26.6 °F 49% 29.77 in 15.0 mi WNW 15.0 mph - N/A   Scattered Clouds
9:00 PM 48.2 °F - 23.0 °F 37% 29.76 in 15.0 mi WNW 24.2 mph 33.4 mph N/A   Scattered Clouds
10:00 PM 46.4 °F 41.1 °F 23.0 °F 40% 29.70 in 15.0 mi WNW 11.5 mph 18.4 mph N/A   Mostly Cloudy